FW2728 Weather Reports


Display with metric or nautical units.
time (UTC)temp
F
wind
direction
speed
MPH
gust
MPH
rain 1hr
in
rain 24hr
in
rain mn
in
humidity
%
barometer
mb
20260510022517 81 118 1.0 3.0 0.00 0.00 0.00 58 1009.1
20260510021518 82 103 1.0 3.0 0.00 0.00 0.00 58 1008.9
20260510020538 82 109 1.0 4.0 0.00 0.00 0.00 58 1008.8
20260510015518 83 120 1.0 4.0 0.00 0.00 0.00 58 1008.7
20260510014515 83 113 1.0 4.0 0.00 0.00 0.00 57 1008.6
20260510013515 84 106 1.0 5.0 0.00 0.00 0.00 55 1008.4
20260510012518 84 102 1.0 5.0 0.00 0.00 0.00 52 1008.3
20260510011536 86 118 0.0 1.0 0.00 0.00 0.00 47 1008.2
20260510010516 86 154 0.0 1.0 0.00 0.00 0.00 46 1008.1
20260510005516 87 124 0.0 3.0 0.00 0.00 0.00 45 1007.9
20260510004516 89 130 1.0 3.0 0.00 0.00 0.00 43 1007.9
20260510003516 90 106 0.0 3.0 0.00 0.00 0.00 41 1007.9
20260510002536 91 110 0.0 2.0 0.00 0.00 0.00 41 1007.9
20260510001517 91 132 0.0 3.0 0.00 0.00 0.00 40 1007.9
20260510000517 91 151 0.0 2.0 0.00 0.00 0.00 40 1007.9
20260509235537 91 114 1.0 2.0 0.00 0.00 0.00 40 1007.9
20260509234517 91 79 1.0 3.0 0.00 0.00 0.00 40 1007.9
20260509233517 91 59 1.0 3.0 0.00 0.00 0.00 40 1008.0
20260509232517 91 51 1.0 2.0 0.00 0.00 0.00 39 1007.9
20260509231519 91 95 1.0 4.0 0.00 0.00 0.00 40 1007.9
20260509230539 92 81 2.0 6.0 0.00 0.00 0.00 40 1007.9
20260509225539 92 61 1.0 3.0 0.00 0.00 0.00 39 1007.9
20260509224519 94 69 2.0 4.0 0.00 0.00 0.00 39 1007.8
20260509223519 94 96 0.0 2.0 0.00 0.00 0.00 33 1007.8
20260509222515 94 94 1.0 3.0 0.00 0.00 0.00 34 1007.8
20260509221516 93 275 1.0 4.0 0.00 0.00 0.00 35 1007.8
20260509220516 93 46 0.0 2.0 0.00 0.00 0.00 36 1007.9
20260509215519 93 60 1.0 4.0 0.00 0.00 0.00 36 1007.9
20260509214519 93 121 1.0 6.0 0.00 0.00 0.00 36 1008.0
20260509213519 93 101 1.0 3.0 0.00 0.00 0.00 37 1008.1
20260509212519 93 243 1.0 3.0 0.00 0.00 0.00 36 1008.2
20260509211519 93 103 0.0 2.0 0.00 0.00 0.00 35 1008.4
20260509210559 93 80 1.0 5.0 0.00 0.00 0.00 37 1008.5
20260509205519 94 62 0.0 3.0 0.00 0.00 0.00 36 1008.6
20260509204539 92 96 1.0 4.0 0.00 0.00 0.00 38 1008.8
20260509203519 92 154 1.0 5.0 0.00 0.00 0.00 38 1009.0
20260509202519 92 36 1.0 5.0 0.00 0.01 0.00 39 1009.1
20260509201518 93 50 1.0 4.0 0.00 0.01 0.00 39 1009.2
20260509200539 91 220 0.0 5.0 0.00 0.04 0.00 40 1009.3
20260509195519 91 264 1.0 3.0 0.00 0.04 0.00 39 1009.3
20260509194518 90 65 1.0 4.0 0.00 0.04 0.00 40 1009.4
20260509193515 88 232 1.0 4.0 0.00 0.04 0.00 43 1009.5
20260509192519 89 274 2.0 7.0 0.00 0.04 0.00 44 1009.6
20260509191539 88 282 1.0 4.0 0.00 0.04 0.00 44 1009.6
20260509190518 87 214 2.0 5.0 0.00 0.04 0.00 44 1009.7
20260509185518 88 278 2.0 5.0 0.00 0.04 0.00 45 1009.9
20260509184519 88 258 3.0 6.0 0.00 0.04 0.00 45 1009.9
20260509183516 88 256 1.0 6.0 0.00 0.04 0.00 44 1009.9
20260509182516 88 278 1.0 5.0 0.00 0.04 0.00 44 1010.1
20260509181517 87 271 2.0 5.0 0.00 0.04 0.00 45 1010.2
20260509180517 87 266 2.0 7.0 0.00 0.04 0.00 45 1010.3
20260509175517 86 253 2.0 5.0 0.00 0.04 0.00 46 1010.3
20260509174537 88 261 2.0 5.0 0.00 0.04 0.00 45 1010.4
20260509173517 87 104 1.0 5.0 0.00 0.04 0.00 45 1010.5
20260509172517 86 275 1.0 5.0 0.00 0.04 0.00 48 1010.5
20260509171518 86 270 1.0 5.0 0.00 0.04 0.00 47 1010.6
20260509170518 85 274 1.0 4.0 0.00 0.04 0.00 48 1010.8
20260509165538 85 311 2.0 6.0 0.00 0.04 0.00 49 1010.8
20260509164539 84 333 2.0 6.0 0.00 0.04 0.00 49 1010.9
20260509163519 84 290 1.0 6.0 0.00 0.04 0.00 51 1010.9
20260509162516 84 268 1.0 5.0 0.00 0.04 0.00 52 1010.9
20260509161519 83 284 1.0 6.0 0.00 0.04 0.00 53 1010.8
20260509160516 83 329 1.0 3.0 0.00 0.04 0.00 52 1010.9
20260509155516 83 282 2.0 9.0 0.00 0.04 0.00 53 1010.8
20260509154516 82 218 1.0 3.0 0.00 0.04 0.00 55 1010.7
20260509153516 82 314 1.0 7.0 0.00 0.04 0.00 54 1010.7
20260509152516 82 344 1.0 4.0 0.00 0.04 0.00 54 1010.6
20260509151516 80 297 1.0 3.0 0.00 0.04 0.00 56 1010.6
20260509150516 80 286 2.0 7.0 0.00 0.04 0.00 57 1010.7
20260509145537 80 300 1.0 4.0 0.00 0.04 0.00 60 1010.8
20260509144517 79 310 1.0 5.0 0.00 0.04 0.00 64 1010.8
20260509143517 78 346 1.0 4.0 0.00 0.04 0.00 67 1010.9
20260509142517 78 308 1.0 3.0 0.00 0.04 0.00 69 1010.9
20260509141518 78 327 1.0 3.0 0.00 0.04 0.00 70 1011.0
20260509140518 76 274 1.0 4.0 0.00 0.04 0.00 74 1010.9
20260509135518 75 297 1.0 3.0 0.00 0.04 0.00 75 1010.8
20260509134518 74 281 0.0 3.0 0.00 0.04 0.00 78 1010.7
20260509133518 73 316 1.0 4.0 0.00 0.04 0.00 79 1010.8
20260509132518 73 298 1.0 4.0 0.00 0.04 0.00 79 1010.6
20260509131516 72 339 1.0 3.0 0.00 0.04 0.00 80 1010.6
20260509130515 71 339 0.0 2.0 0.00 0.04 0.00 82 1010.6
20260509125516 70 277 1.0 3.0 0.00 0.04 0.00 84 1010.7
20260509124537 69 270 1.0 5.0 0.00 0.04 0.00 85 1010.6
20260509123516 69 336 1.0 6.0 0.00 0.04 0.00 86 1010.6
20260509122517 69 20 1.0 3.0 0.00 0.04 0.00 86 1010.6
20260509121517 69 255 1.0 3.0 0.00 0.04 0.00 88 1010.6
20260509120517 69 282 1.0 6.0 0.00 0.04 0.00 90 1010.5
20260509115517 69 239 1.0 5.0 0.00 0.04 0.00 89 1010.4
20260509114517 69 159 0.0 1.0 0.00 0.04 0.00 88 1010.3
20260509113518 70 53 0.0 1.0 0.00 0.04 0.00 87 1010.2
20260509112518 71 224 2.0 2.0 0.00 0.04 0.00 86 1010.0
20260509111518 71 223 2.0 3.0 0.00 0.04 0.00 85 1009.9
20260509110518 72 222 2.0 4.0 0.00 0.04 0.00 84 1009.8
20260509105516 72 225 2.0 3.0 0.00 0.04 0.00 83 1009.7
20260509104516 72 223 2.0 4.0 0.00 0.04 0.00 82 1009.6
20260509103516 72 46 1.0 1.0 0.00 0.04 0.00 82 1009.7
20260509102516 72 46 1.0 1.0 0.00 0.04 0.00 85 1009.6
20260509101516 72 46 1.0 2.0 0.00 0.04 0.00 88 1009.6
20260509100516 71 49 1.0 2.0 0.00 0.04 0.00 89 1009.6
20260509095516 71 203 3.0 8.0 0.00 0.04 0.00 90 1009.2
20260509094516 71 221 4.0 10.0 0.00 0.04 0.00 90 1007.6
20260509093517 71 221 5.0 10.0 0.00 0.04 0.00 90 1007.2
20260509092517 71 222 4.0 7.0 0.00 0.04 0.00 90 1006.9
20260509091537 71 221 6.0 9.0 0.00 0.04 0.00 90 1007.0
20260509090517 71 222 5.0 9.0 0.00 0.04 0.00 90 1007.2
20260509085517 71 222 6.0 11.0 0.00 0.04 0.00 90 1007.3
20260509084517 71 223 7.0 10.0 0.00 0.04 0.00 90 1007.4
20260509083518 70 221 6.0 11.0 0.00 0.04 0.00 91 1007.4
20260509082518 70 218 3.0 7.0 0.00 0.04 0.00 92 1008.1
20260509081518 70 49 2.0 3.0 0.00 0.04 0.00 91 1008.7
20260509080518 70 63 2.0 4.0 0.00 0.04 0.00 91 1009.1
20260509075616 70 221 2.0 4.0 0.00 0.04 0.00 90 1009.7
20260509074516 71 221 3.0 5.0 0.00 0.04 0.00 89 1010.3
20260509073516 71 191 2.0 4.0 0.00 0.04 0.00 89 1010.6
20260509072556 71 54 1.0 2.0 0.00 0.04 0.00 89 1011.1
20260509071617 71 49 1.0 2.0 0.00 0.04 0.00 89 1011.5
20260509070536 71 50 1.0 2.0 0.00 0.04 0.00 91 1011.8
20260509065557 71 46 1.0 1.0 0.00 0.04 0.00 91 1011.7
20260509064537 70 45 1.0 1.0 0.00 0.04 0.00 92 1011.6
20260509063517 70 45 1.0 1.0 0.00 0.04 0.00 91 1011.4
20260509062517 70 49 1.0 1.0 0.00 0.04 0.00 92 1011.5
20260509061517 70 47 1.0 1.0 0.00 0.04 0.00 92 1011.6
20260509060517 70 46 1.0 2.0 0.00 0.04 0.00 91 1011.4
20260509055517 70 47 1.0 1.0 0.00 0.04 0.00 91 1011.6
20260509054518 70 47 1.0 1.0 0.00 0.04 0.00 91 1011.6
20260509053518 70 47 1.0 1.0 0.00 0.04 0.00 90 1011.5
20260509052518 70 46 1.0 1.0 0.00 0.04 0.00 90 1010.7
20260509051518 71 47 1.0 1.0 0.00 0.04 0.00 89 1010.7
20260509050535 71 223 1.0 2.0 0.00 0.04 0.00 89 1010.6
20260509045536 71 178 1.0 3.0 0.00 0.04 0.04 88 1010.5
20260509044516 71 223 1.0 2.0 0.00 0.04 0.04 88 1010.6
20260509043516 72 225 1.0 2.0 0.00 0.04 0.04 87 1010.7
20260509042516 72 223 1.0 1.0 0.00 0.04 0.04 86 1010.8
20260509041516 72 46 0.0 1.0 0.00 0.04 0.04 85 1011.0
20260509040516 72 46 1.0 1.0 0.00 0.04 0.04 85 1010.9
20260509035517 72 46 1.0 2.0 0.00 0.04 0.04 85 1010.7
20260509034517 73 140 1.0 3.0 0.00 0.04 0.04 84 1010.2
20260509033517 73 219 2.0 4.0 0.00 0.04 0.04 84 1010.2
20260509032517 73 173 1.0 4.0 0.00 0.04 0.04 83 1009.9
20260509031517 73 215 2.0 4.0 0.00 0.04 0.04 82 1009.7
20260509030517 73 209 2.0 3.0 0.00 0.04 0.04 82 1009.8
20260509025518 73 142 1.0 2.0 0.00 0.04 0.04 82 1009.5
20260509024517 73 154 1.0 4.0 0.00 0.04 0.04 82 1009.1
20260509023518 74 212 2.0 4.0 0.00 0.04 0.04 81 1009.0